GW2644 Weather Reports


Display with metric or nautical units.
time (UTC)temp
F
wind
direction
speed
MPH
gust
MPH
rain 1hr
in
rain 24hr
in
rain mn
in
humidity
%
barometer
mb
20260502203411 70 257 3.0 3.0 0.00 0.00 0.00 68 1016.6
20260502202907 69 246 0.0 2.0 0.00 0.00 0.00 69 1016.9
20260502202404 68 212 0.0 3.0 0.00 0.00 0.00 71 1017.1
20260502201902 70 237 3.0 4.0 0.00 0.00 0.00 70 1016.9
20260502201358 68 257 0.0 3.0 0.00 0.00 0.00 72 1017.2
20260502200855 68 279 2.0 3.0 0.00 0.00 0.00 72 1017.3
20260502200350 70 244 3.0 6.0 0.00 0.00 0.00 70 1017.3
20260502195848 69 266 3.0 4.0 0.00 0.00 0.00 73 1017.3
20260502195344 67 165 0.0 2.0 0.00 0.00 0.00 73 1017.5
20260502194841 68 215 1.0 5.0 0.00 0.00 0.00 73 1017.8
20260502194338 68 225 2.0 6.0 0.00 0.00 0.00 74 1017.6
20260502193834 67 279 3.0 4.0 0.00 0.00 0.00 74 1017.4
20260502193331 65 109 0.0 4.0 0.00 0.00 0.00 75 1017.6
20260502192827 65 233 0.0 2.0 0.00 0.00 0.00 77 1017.7
20260502192324 65 206 0.0 5.0 0.00 0.00 0.00 77 1018.1
20260502191821 66 250 4.0 5.0 0.00 0.00 0.00 77 1017.9
20260502191319 66 252 3.0 4.0 0.00 0.00 0.00 78 1018.2
20260502190816 66 212 0.0 6.0 0.00 0.00 0.00 78 1018.3
20260502190314 66 215 1.0 4.0 0.00 0.00 0.00 78 1018.4
20260502185809 65 270 3.0 4.0 0.00 0.00 0.00 78 1018.3
20260502185305 65 214 0.0 3.0 0.00 0.00 0.00 77 1018.4
20260502184802 63 279 0.0 3.0 0.00 0.00 0.00 79 1018.2
20260502184257 65 217 0.0 3.0 0.00 0.00 0.00 78 1018.4
20260502183754 64 249 0.0 2.0 0.00 0.00 0.00 80 1018.4
20260502183250 63 0 0.0 0.0 0.00 0.00 0.00 81 1018.4
20260502182746 63 6 1.0 2.0 0.00 0.00 0.00 82 1018.2
20260502182241 64 248 2.0 4.0 0.00 0.00 0.00 82 1018.3
20260502181738 64 258 3.0 4.0 0.00 0.00 0.00 82 1018.1
20260502181237 63 246 0.0 1.0 0.00 0.00 0.00 82 1018.4
20260502180733 64 262 0.0 4.0 0.00 0.00 0.00 83 1018.6
20260502180231 63 278 1.0 4.0 0.00 0.00 0.00 84 1018.3
20260502170150 62 249 0.0 2.0 0.00 0.00 0.00 88 1019.2
20260502164136 62 227 3.0 3.0 0.00 0.00 0.00 89 1019.1
20260502163632 61 246 0.0 2.0 0.00 0.00 0.00 90 1019.3
20260502163129 61 243 1.0 2.0 0.00 0.00 0.00 90 1019.2
20260502162626 61 270 0.0 2.0 0.00 0.00 0.00 90 1019.1
20260502162123 61 255 1.0 1.0 0.00 0.00 0.00 89 1018.9
20260502161620 61 249 0.0 0.0 0.00 0.00 0.00 90 1019.1
20260502161117 61 249 0.0 0.0 0.00 0.00 0.00 90 1019.3
20260502160615 61 278 0.0 1.0 0.00 0.00 0.00 90 1019.3
20260502160114 61 285 0.0 1.0 0.00 0.00 0.00 90 1019.2
20260502152028 61 254 0.0 0.0 0.00 0.00 0.00 92 1019.0
20260502151525 60 254 0.0 0.0 0.00 0.00 0.00 92 1018.9
20260502151022 61 254 0.0 0.0 0.00 0.00 0.00 93 1018.7
20260502150520 61 254 0.0 0.0 0.00 0.00 0.00 93 1018.6
20260502130358 60 195 0.0 0.0 0.00 0.00 0.00 93 1018.2
20260502123341 60 228 0.0 2.0 0.00 0.00 0.00 93 1018.0
20260502122838 60 234 0.0 2.0 0.00 0.00 0.00 93 1018.1
20260502122334 60 330 2.0 2.0 0.00 0.00 0.00 93 1018.0
20260502121833 60 234 0.0 1.0 0.00 0.00 0.00 93 1017.9
20260502121330 60 243 0.0 1.0 0.00 0.00 0.00 93 1018.0
20260502120827 60 262 0.0 2.0 0.00 0.00 0.00 92 1018.0
20260502120323 60 345 0.0 2.0 0.00 0.00 0.00 92 1017.7
20260502115821 60 286 0.0 1.0 0.00 0.00 0.00 92 1017.7
20260502115318 60 353 0.0 3.0 0.00 0.00 0.00 92 1017.8
20260502114814 60 249 0.0 1.0 0.00 0.00 0.00 92 1017.7
20260502114311 60 270 0.0 0.0 0.00 0.00 0.00 92 1017.7
20260502113808 60 270 0.0 0.0 0.00 0.00 0.00 92 1017.7
20260502113306 60 246 0.0 0.0 0.00 0.00 0.00 92 1017.6
20260502112804 60 246 0.0 0.0 0.00 0.00 0.00 92 1017.6
20260502112301 60 246 0.0 0.0 0.00 0.00 0.00 92 1017.6
20260502111758 60 246 0.0 0.0 0.00 0.00 0.00 92 1017.6
20260502111255 60 246 0.0 0.0 0.00 0.00 0.00 92 1017.6
20260502110753 60 195 0.0 1.0 0.00 0.00 0.00 92 1017.6
20260502110250 59 249 0.0 1.0 0.00 0.00 0.00 92 1017.8
20260502105748 59 240 0.0 0.0 0.00 0.00 0.00 93 1017.8
20260502105244 59 240 0.0 2.0 0.00 0.00 0.00 93 1017.6
20260502104742 59 291 0.0 1.0 0.00 0.00 0.00 93 1017.5
20260502104240 59 278 0.0 0.0 0.00 0.00 0.00 93 1017.3
20260502103737 59 257 0.0 1.0 0.00 0.00 0.00 93 1017.4
20260502103234 59 0 0.0 0.0 0.00 0.00 0.00 94 1017.4
20260502102731 59 180 0.0 0.0 0.00 0.00 0.00 94 1017.4
20260502102227 59 180 0.0 2.0 0.00 0.00 0.00 94 1017.2
20260502101726 58 270 0.0 0.0 0.00 0.00 0.00 94 1017.2
20260502101224 58 270 0.0 0.0 0.00 0.00 0.00 94 1017.3
20260502100721 58 270 0.0 0.0 0.00 0.00 0.00 94 1017.3
20260502100220 58 270 0.0 0.0 0.00 0.00 0.00 94 1017.4
20260502091154 59 262 0.0 0.0 0.00 0.00 0.00 93 1017.4
20260502090651 58 262 0.0 0.0 0.00 0.00 0.00 93 1017.5
20260502090148 59 270 0.0 0.0 0.00 0.00 0.00 93 1017.5
20260502080110 59 286 0.0 0.0 0.00 0.00 0.00 92 1017.7
20260502071043 60 243 0.0 0.0 0.00 0.00 0.00 91 1018.1
20260502070541 60 243 0.0 0.0 0.00 0.00 0.00 91 1018.4
20260502070039 60 243 0.0 0.0 0.00 0.00 0.00 90 1018.2
20260502065538 60 243 0.0 0.0 0.00 0.00 0.00 90 1018.2
20260502065035 60 257 0.0 1.0 0.00 0.00 0.00 90 1018.1
20260502064533 60 246 0.0 1.0 0.00 0.00 0.00 90 1018.1
20260502064030 60 254 0.0 0.0 0.00 0.00 0.00 90 1018.3
20260502063527 60 229 0.0 0.0 0.00 0.00 0.00 90 1018.1
20260502063020 61 289 0.0 0.0 0.00 0.00 0.00 90 1018.2
20260502062516 60 352 0.0 0.0 0.00 0.00 0.00 89 1018.0
20260502062015 61 270 0.0 2.0 0.00 0.00 0.00 89 1018.0
20260502061512 61 270 0.0 2.0 0.00 0.00 0.00 89 1017.9
20260502061009 61 270 0.0 0.0 0.00 0.00 0.00 89 1018.0
20260502060503 61 334 0.0 2.0 0.00 0.00 0.00 89 1017.9
20260502060001 61 278 0.0 1.0 0.00 0.00 0.00 89 1017.9
20260502055458 61 286 0.0 1.0 0.00 0.00 0.00 89 1018.0
20260502054958 61 270 0.0 0.0 0.00 0.00 0.00 89 1018.2
20260502054455 61 229 0.0 0.0 0.00 0.00 0.00 89 1018.1
20260502053952 61 277 0.0 2.0 0.00 0.00 0.00 88 1018.0
20260502053449 61 279 0.0 1.0 0.00 0.00 0.00 88 1018.0
20260502052947 61 263 0.0 2.0 0.00 0.00 0.00 88 1018.0
20260502052445 61 270 0.0 2.0 0.00 0.00 0.00 88 1018.2
20260502051943 62 331 0.0 2.0 0.00 0.00 0.00 88 1018.2
20260502051441 61 279 0.0 2.0 0.00 0.00 0.00 88 1018.1
20260502050938 62 278 0.0 2.0 0.00 0.00 0.00 88 1018.0
20260502050434 62 275 2.0 2.0 0.00 0.00 0.00 88 1018.0
20260502045931 62 270 0.0 2.0 0.00 0.00 0.00 88 1018.2
20260502045428 62 286 1.0 3.0 0.00 0.00 0.00 88 1018.1
20260502044925 62 254 2.0 3.0 0.00 0.00 0.00 88 1018.0
20260502044421 62 332 3.0 3.0 0.00 0.00 0.00 88 1017.6
20260502043918 62 315 0.0 3.0 0.00 0.00 0.00 87 1017.9
20260502043416 62 262 1.0 3.0 0.00 0.00 0.00 87 1017.8
20260502042915 62 270 0.0 2.0 0.00 0.00 0.00 87 1017.8
20260502042413 62 287 0.0 3.0 0.00 0.00 0.00 87 1017.7
20260502041910 62 263 1.0 3.0 0.00 0.00 0.00 86 1017.7
20260502041408 63 285 0.0 2.0 0.00 0.00 0.00 86 1017.7
20260502040904 62 270 0.0 3.0 0.00 0.00 0.00 86 1017.3
20260502040401 62 339 2.0 2.0 0.00 0.00 0.00 86 1017.4
20260502035857 62 324 3.0 3.0 0.00 0.00 0.00 86 1017.5
20260502035354 63 226 0.0 4.0 0.00 0.00 0.00 85 1017.4
20260502034851 63 270 0.0 4.0 0.00 0.00 0.00 85 1017.3
20260502034350 63 356 0.0 4.0 0.00 0.00 0.00 85 1017.1
20260502033848 63 243 0.0 3.0 0.00 0.00 0.00 85 1017.2
20260502033345 63 295 0.0 4.0 0.00 0.00 0.00 84 1017.1
20260502032841 63 231 0.0 2.0 0.00 0.00 0.00 84 1016.9
20260502032337 63 319 0.0 4.0 0.00 0.00 0.00 84 1016.9
20260502031835 63 228 2.0 5.0 0.00 0.00 0.00 84 1016.7
20260502031334 64 251 2.0 5.0 0.00 0.00 0.00 83 1016.8
20260502030832 64 287 5.0 5.0 0.00 0.00 0.00 83 1016.9
20260502030330 64 304 2.0 5.0 0.00 0.00 0.00 82 1016.7
20260502025826 64 265 4.0 4.0 0.00 0.00 0.00 82 1016.6
20260502025324 65 252 3.0 5.0 0.00 0.00 0.00 82 1016.4
20260502024822 65 250 2.0 4.0 0.00 0.00 0.00 81 1016.5
20260502024319 65 334 0.0 3.0 0.00 0.00 0.00 80 1016.3
20260502023817 66 230 3.0 4.0 0.00 0.00 0.00 79 1016.5
20260502023315 66 257 0.0 6.0 0.00 0.00 0.00 79 1016.2
20260502022812 66 270 2.0 6.0 0.00 0.00 0.00 78 1016.4
20260502022308 66 257 3.0 5.0 0.00 0.00 0.00 78 1016.2
20260502021805 67 286 1.0 4.0 0.00 0.00 0.00 77 1016.3
20260502021303 67 341 4.0 5.0 0.00 0.00 0.00 76 1016.0
20260502020800 67 263 1.0 7.0 0.00 0.00 0.00 76 1016.0
20260502020257 68 285 1.0 7.0 0.00 0.00 0.00 75 1016.0
20260502015754 68 285 3.0 7.0 0.00 0.00 0.00 75 1015.9
20260502015251 68 292 2.0 5.0 0.00 0.00 0.00 75 1016.2
20260502014748 69 307 2.0 4.0 0.00 0.00 0.00 74 1015.8
20260502014245 69 294 2.0 5.0 0.00 0.00 0.00 74 1015.9
20260502013741 69 245 0.0 6.0 0.00 0.00 0.00 74 1015.8
20260502013237 69 266 3.0 5.0 0.00 0.00 0.00 73 1015.7
20260502012734 70 225 0.0 5.0 0.00 0.00 0.00 73 1015.7
20260502012232 69 348 2.0 4.0 0.00 0.00 0.00 73 1015.8
20260502011729 70 292 4.0 6.0 0.00 0.00 0.00 72 1015.5
20260502011225 71 229 3.0 4.0 0.00 0.00 0.00 71 1015.6
20260502010723 71 356 0.0 5.0 0.00 0.00 0.00 71 1015.5
20260502010218 70 243 2.0 8.0 0.00 0.00 0.00 70 1015.7
20260502005716 71 270 0.0 6.0 0.00 0.00 0.00 70 1015.8
20260502005214 72 247 6.0 6.0 0.00 0.00 0.00 68 1015.7
20260502004709 71 292 0.0 7.0 0.00 0.00 0.00 68 1015.7
20260502004206 72 252 3.0 5.0 0.00 0.00 0.00 66 1015.6
20260502003704 72 270 2.0 6.0 0.00 0.00 0.00 66 1015.6
20260502003201 72 272 5.0 6.0 0.00 0.00 0.00 65 1015.7
20260502002657 73 266 3.0 5.0 0.00 0.00 0.00 64 1015.5
20260502002155 72 319 2.0 5.0 0.00 0.00 0.00 64 1015.6
20260502001652 73 326 3.0 5.0 0.00 0.00 0.00 62 1015.4
20260502001149 73 274 3.0 6.0 0.00 0.00 0.00 63 1015.5
20260502000647 73 235 3.0 5.0 0.00 0.00 0.00 62 1015.4
20260502000145 74 329 3.0 8.0 0.00 0.00 0.00 62 1015.4
20260501235641 74 270 2.0 5.0 0.00 0.00 0.00 62 1015.7
20260501235137 73 246 1.0 4.0 0.00 0.00 0.00 61 1015.5
20260501234632 73 227 3.0 6.0 0.00 0.00 0.00 61 1015.8
20260501234130 74 220 3.0 5.0 0.00 0.00 0.00 61 1015.7
20260501233628 73 279 0.0 6.0 0.00 0.00 0.00 62 1015.9
20260501233125 72 201 2.0 6.0 0.00 0.00 0.00 63 1015.8
20260501232620 73 219 3.0 5.0 0.00 0.00 0.00 61 1015.6
20260501232118 74 256 0.0 6.0 0.00 0.00 0.00 62 1015.5
20260501231616 73 241 0.0 7.0 0.00 0.00 0.00 61 1015.7
20260501231114 74 218 4.0 4.0 0.00 0.00 0.00 60 1015.6
20260501230612 74 209 2.0 7.0 0.00 0.00 0.00 61 1015.6
20260501230110 73 209 2.0 5.0 0.00 0.00 0.00 61 1015.7
20260501225607 72 213 2.0 4.0 0.00 0.00 0.00 61 1015.6
20260501225103 73 203 3.0 6.0 0.00 0.00 0.00 61 1016.0
20260501224601 73 231 2.0 5.0 0.00 0.00 0.00 60 1015.8
20260501224057 74 270 1.0 7.0 0.00 0.00 0.00 61 1016.0
20260501223554 74 240 3.0 6.0 0.00 0.00 0.00 61 1016.0
20260501223050 75 226 5.0 5.0 0.00 0.00 0.00 59 1016.0
20260501222547 74 208 2.0 6.0 0.00 0.00 0.00 59 1016.2
20260501222044 74 289 1.0 3.0 0.00 0.00 0.00 60 1016.1
20260501221540 74 202 0.0 5.0 0.00 0.00 0.00 60 1016.3
20260501221038 75 270 0.0 3.0 0.00 0.00 0.00 60 1016.2
20260501220536 74 235 2.0 3.0 0.00 0.00 0.00 61 1016.7
20260501220032 71 240 2.0 3.0 0.00 0.00 0.00 63 1016.4
20260501215528 72 270 1.0 5.0 0.00 0.00 0.00 63 1016.6
20260501215024 72 258 2.0 4.0 0.00 0.00 0.00 63 1016.7
20260501214519 72 242 4.0 6.0 0.00 0.00 0.00 62 1016.8
20260501214015 73 203 3.0 5.0 0.00 0.00 0.00 63 1016.9
20260501213513 73 218 4.0 6.0 0.00 0.00 0.00 64 1016.7
20260501213009 72 248 2.0 3.0 0.00 0.00 0.00 63 1016.9
20260501212504 72 250 2.0 5.0 0.00 0.00 0.00 62 1017.0
20260501212002 73 238 4.0 5.0 0.00 0.00 0.00 62 1016.9
20260501211459 70 203 0.0 3.0 0.00 0.00 0.00 64 1017.1
20260501210956 72 245 2.0 6.0 0.00 0.00 0.00 64 1016.9
20260501210452 73 279 0.0 4.0 0.00 0.00 0.00 63 1017.1
20260501205949 72 241 2.0 5.0 0.00 0.00 0.00 63 1017.2
20260501205446 72 213 9.0 9.0 0.00 0.00 0.00 64 1017.2
20260501204944 73 243 3.0 7.0 0.00 0.00 0.00 64 1017.1
20260501204439 74 228 2.0 5.0 0.00 0.00 0.00 62 1017.1
20260501203936 72 198 3.0 5.0 0.00 0.00 0.00 63 1017.3
20260501203433 72 265 4.0 6.0 0.00 0.00 0.00 62 1017.3